Regional Weather Roundup
Issued by NWS

Home | Current Version | Previous Version | Graphics & Text | Print | Product List | Glossary On
Versions: 1 2 3 4 5 6 7 8 9 10 11 12 13 14 15 16 17 18 19 20 21 22 23 24 25 26 27 28 29 30 31 32 33 34 35 36 37 38 39 40 41 42 43 44 45 46 47 48 49 50
000
ASUS43 KMKX 261659
RWRWI

WISCONSIN REGIONAL WEATHER ROUNDUP
NATIONAL WEATHER SERVICE MILWAUKEE/SULLIVAN WI
1100 AM CST THU FEB 26 2015

NOTE: "FAIR" INDICATES FEW OR NO CLOUDS BELOW 12,000 FEET WITH NO
SIGNIFICANT WEATHER AND/OR OBSTRUCTIONS TO VISIBILITY.

WIZ001-002-006>008-014>016-023>028-261800-
NORTHWEST WISCONSIN

CITY           SKY/WX    TMP DP  RH WIND       PRES   REMARKS
SUPERIOR ARPT  SUNNY      2 -11  53 NW6       30.46S WCI  -9
ASHLAND        CLOUDY     5  -8  55 N9        30.41S WCI  -9
HAYWARD        PTSUNNY    3  -9  57 N7        30.37R WCI  -9
SIREN          SUNNY      4 -11  50 NW5       30.43R WCI  -6
CUMBERLAND     SUNNY      1  -9  60 N9        30.38R WCI -14
RICE LAKE      SUNNY      2  -9  59 W5        30.41S WCI  -8
CHETEK         SUNNY      2  -9  61 NW5       30.39S WCI  -8
LADYSMITH      MOSUNNY    3  -6  66 CALM      30.37R
EAU CLAIRE     NOT AVBL
MENOMONIE      SUNNY      5  -8  55 NW5       30.42R WCI  -4
NEW RICHMOND   SUNNY      2 -10  58 NW6       30.43R WCI  -9
OSCEOLA        SUNNY      2 -10  57 NW7       30.48R WCI -11
$$

WIZ003>005-009-010-017-018-261800-
NORTH CENTRAL WISCONSIN

CITY           SKY/WX    TMP DP  RH WIND       PRES   REMARKS
MANITOWISH WTR CLOUDY     1 -10  60 N9        30.27S WCI -15
ARBOR VITAE    PTSUNNY    1  -8  65 N10       30.27S HAZE    WCI -14
WOODRUFF       PTSUNNY    1  -8  65 N10       30.27S HAZE    WCI -14
RHINELANDER    MOSUNNY    2  -9  60 N7        30.26S WCI -11
EAGLE RIVER    MOSUNNY    1 -12  53 N15       30.25S WCI -18
LAND O LAKES   PTSUNNY    1 -10  60 N8        30.26S WCI -12
PHILLIPS       CLOUDY     1  -8  65 N10       30.30R WCI -15
TOMAHAWK       SUNNY      2 -10  56 N8        30.29S WCI -11
MEDFORD        SUNNY      2 -10  57 N10G16    30.29S WCI -13
MERRILL        MOSUNNY    4  -9  55 N8        30.30R WCI  -9
$$

WIZ029-030-035-036-043>047-261800-
CENTRAL WISCONSIN

CITY           SKY/WX    TMP DP  RH WIND       PRES   REMARKS
WAUSAU         MOSUNNY    4  -9  55 N10       30.29S WCI -11
MOSINEE        NOT AVBL
MARSHFIELD     SUNNY      5  -8  55 NW13      30.31R WCI -12
STEVENS POINT  MOSUNNY    4  -9  53 NW9       30.32R WCI -10
WAUPACA        SUNNY      9  -6  50 NE5       30.33F WCI   1
WAUTOMA        NOT AVBL
WISC RAPIDS    SUNNY      7  -8  50 N7        30.34S WCI  -5
CAMP DOUGLAS   NOT AVBL
$$

WIZ011>013-019>022-031-037>040-048>050-261800-
NORTHEAST WISCONSIN

CITY           SKY/WX    TMP DP  RH WIND       PRES   REMARKS
ANTIGO         SUNNY      1  -7  68 N8        30.26S WCI -13
SHAWANO        PTSUNNY   10  -5  51 N5        30.33S WCI   1
OCONTO         MOSUNNY    6  -6  57 N8        30.34S WCI  -7
STURGEON BAY   SUNNY      3  -6  66 N15       30.33S WCI -15
GREEN BAY      MOSUNNY    9  -5  53 N10       30.33S WCI  -5
MANITOWOC      NOT AVBL
APPLETON       MOSUNNY    7  -6  56 N12       30.32R WCI  -9
CLINTONVILLE   SUNNY      9  -6  52 NE3       30.33S
OSHKOSH        SUNNY      8  -5  55 NE10      30.31S WCI  -6
$$

WIZ032>034-041-042-053>061-261800-
SOUTHWEST WISCONSIN

CITY           SKY/WX    TMP DP  RH WIND       PRES   REMARKS
LA CROSSE      SUNNY      8  -4  58 NW9       30.41R WCI  -5
SPARTA         SUNNY      8  -5  56 NW7       30.38R WCI  -3
VIROQUA        SUNNY      6  -6  57 N6        30.32R WCI  -5
BOSCOBEL       SUNNY     11  -7  44 N12       30.37R WCI  -3
PRAIRIE DU CHI SUNNY      8  -8  48 NW10      30.37S WCI  -7
PLATTEVILLE    SUNNY      6  -4  63 NW12      30.30R WCI -10
$$

WIZ056-057-062-063-064-067-068-261800-
SOUTH CENTRAL WISCONSIN

CITY           SKY/WX    TMP DP  RH WIND       PRES   REMARKS
REEDSBURG      SUNNY      6  -6  56 N9        30.33R WCI  -8
BARABOO/DELLS  SUNNY      6  -8  52 N6        30.32R WCI  -4
LONE ROCK      NOT AVBL
MINERAL POINT  SUNNY     10  -4  52 N8        30.28R WCI  -1
MADISON        MOSUNNY    8  -6  52 N12       30.31R WCI  -7
MIDDLETON      SUNNY      9  -5  53 N8        30.31S WCI  -3
WATERTOWN      SUNNY      9  -2  63 N12       30.28S WCI  -6
MONROE         SUNNY      9  -4  56 N12       30.27R WCI  -6
JANESVILLE     NOT AVBL
$$

WIZ051-052-058>065-066-070>072-261800-
SOUTHEAST WISCONSIN

CITY           SKY/WX    TMP DP  RH WIND       PRES   REMARKS
MILWAUKEE      PTSUNNY   14   0  53 N12       30.26R WCI   0
WAUKESHA       MOSUNNY    9  -2  61 NW12      30.26R WCI  -6
MILWAUKEE/TIMM SUNNY     12  -2  52 N12       30.27R WCI  -2
RACINE         LGT SNOW  14   7  73 N15       30.26R WCI  -1
BURLINGTON     MOSUNNY   13  -3  49 N12G17    30.25R WCI  -1
KENOSHA        MOSUNNY   13   2  61 N10       30.25R WCI   0
FOND DU LAC    SUNNY      7  -6  55 N17       30.31S WCI -12
SHEBOYGAN      SUNNY     10  -6  48 N16       30.28R WCI  -7
WEST BEND      SUNNY     10  -4  52 NW10      30.26S WCI  -3
JUNEAU         SUNNY      6  -5  59 N10       30.29R WCI  -9
$$

LSZ147-162-261800-
LAKE SUPERIOR

STATION/POSITION TIME  TEMP    WIND        PRES    WAVE
                       AIR SEA DIR/SP/G            HT/PER
                 (UTC) (F)     (DEG/KT/KT) (MB)    (FT/S)
DEVILS ISLAND    1600    1     330/ 10/ 11 1032.1R
PORT WING        1640    3     310/  6/ 12 1030.8R
SAXON HARBOR     1600    4     320/  7/  9 1029.5R
$$

LMZ867-665-643>646-261800-
LAKE MICHIGAN

STATION/POSITION TIME  TEMP    WIND        PRES    WAVE
                       AIR SEA DIR/SP/G            HT/PER
                 (UTC) (F)     (DEG/KT/KT) (MB)    (FT/S)
NORTHPORT PIER   1620    4     330/ 10/ 15 1027.1R
KEWAUNEE LAKESHO 1600    5     350/  9/ 15 1025.4R
SHEBOYGAN LAKESH 1600    8     350/ 18/ 21 1027.2R
PORT WASHINGTON  1600    9     330/  6/ 18 1026.1R
MILWAUKEE LAKESH 1600   11     350/ 13/ 17   N/A
KENOSHA   LAKESH 1600   12     340/ 13/ 17 1023.7R
$$

TC  - TEMPERATURE IN CELSIUS
VSB - VISIBILITY IN STATUTE MILES
WCI - WIND CHILL INDEX
HX  - HEAT INDEX



USA.gov is the U.S. government's official web portal to all federal, state and local government web resources and services.